Regional Weather Roundup
Issued by NWS Upton, NY

Current Version | Previous Version | Text Only | Print | Product List | Glossary Off
Versions: 1 2 3 4 5 6 7 8 9 10 11 12 13 14 15 16 17 18 19 20 21 22 23 24 25 26 27

000
ASUS41 KOKX 281808
RWROKX

REGIONAL WEATHER ROUNDUP
NATIONAL WEATHER SERVICE NEW YORK NY
100 PM EST TUE FEB 28 2017

NOTE: "FAIR" INDICATES FEW OR NO CLOUDS BELOW 12,000 FEET WITH NO
SIGNIFICANT WEATHER AND/OR OBSTRUCTIONS TO VISIBILITY.

NYZ071-072-176-178-NJZ106-104-281900-
NEW YORK CITY METRO AREA

CITY           SKY/WX    TMP DP  RH WIND       PRES   REMARKS
Central Park   SUNNY     58  41  53 SE7       30.29F
Wall St Helipt CLEAR     59  43  55 CALM      30.28F
LaGuardia APRT PTSUNNY   50  40  68 NE13      30.27F
Kennedy INTL   PTSUNNY   57  49  74 SE9       30.29F
Breezy Point     N/A     46 N/A N/A E7          N/A
Newark/Liberty PTSUNNY   60  44  55 SE5       30.26F
Teterboro      SUNNY     59  42  53 SE7       30.26F
$$

NYZ177-179-078>081-281900-
LONG ISLAND NEW YORK

CITY           SKY/WX    TMP DP  RH WIND       PRES   REMARKS
Jones Beach      N/A     48 N/A N/A E6          N/A
Matinecock PT    N/A     41 N/A N/A E14         N/A
Farmingdale    CLOUDY    56  49  77 SE7       30.28F
MacArthur/ISP  CLOUDY    56  50  80 SW6       30.28F
Shirley        MOSUNNY   55  50  83 S8        30.29F
Westhampton    CLOUDY    52  48  86 S9        30.31F
Southampton      N/A     52  48  87 S7        30.27F
Bridgehampton  NOT AVBL
East Hampton   CLOUDY    50  47  90 SE5       30.30F
Montauk          N/A     52  47  83 VRB5      30.32F
$$

NYZ052-065-067-281900-
HUDSON VALLEY

CITY           SKY/WX    TMP DP  RH WIND       PRES   REMARKS
White Plains   SUNNY     56  40  55 E7        30.26F
Newburgh       MOSUNNY   57  36  44 E10       30.25
Montgomery     SUNNY     61  35  37 VRB3      30.22F
Poughkeepsie   SUNNY     59  33  37 VRB5      30.23F
Albany         MOSUNNY   57  31  37 S8        30.24F
$$

NJZ001-105-106-008-010-013-015-019>022-104-281900-
NEW JERSEY

CITY           SKY/WX    TMP DP  RH WIND       PRES   REMARKS
Newark/Liberty PTSUNNY   60  44  55 SE5       30.26F
Teterboro      SUNNY     59  42  53 SE7       30.26F
Caldwell       SUNNY     60  40  47 E7        30.26F
Somerville     SUNNY     63  40  42 VRB3      30.23F
Linden         NOT AVBL
Sussex         SUNNY     61  35  37 VRB7      30.23F
Andover          N/A     62  35  36 VRB7      30.22F
Trenton        SUNNY     63  44  50 VRB6      30.24F
Millville      PTSUNNY   65  51  60 W8        30.24F
Atlantic City  PTSUNNY   65  50  58 SE8       30.24F
Wrightstown    MOSUNNY   67  48  51 W5        30.21F
Toms River     CLOUDY    64  53  67 CALM      30.24F
Belmar         MOSUNNY   59  50  72 SE9       30.26F
$$

PAZ047>061-062-071-281900-
EASTERN PENNSYLVANIA

CITY           SKY/WX    TMP DP  RH WIND       PRES   REMARKS
Philadelphia   CLOUDY    64  45  49 VRB7      30.24F
Allentown      SUNNY     63  34  33 S6        30.22F
Scranton       SUNNY     61  32  33 W6        30.16F
$$

CTZ002-004>006-009-010-012-RIZ004-006-007-MAZ004-011-015-281900-
SOUTHERN NEW ENGLAND
 IN CT

CITY           SKY/WX    TMP DP  RH WIND       PRES   REMARKS
Bradley INTL   MOSUNNY   60  34  37 S12       30.28F
Hartford       MOSUNNY   58  38  47 SE8       30.27F
Danbury        SUNNY     57  38  48 SE6       30.27F
Wtrbury/Oxford MOSUNNY   55  36  47 SE7       30.27F
Bridgeport     MOSUNNY   48  41  76 E12       30.29F
Meriden        MOSUNNY   59  40  49 S8        30.27F
New Haven      CLOUDY    51  43  74 E10       30.29F
Chester        CLOUDY    50  43  76 VRB7      30.30F
Groton         CLOUDY    47  44  90 E10       30.31F
Wilimantic     PTSUNNY   58  39  49 S12       30.30F

 IN RI

CITY           SKY/WX    TMP DP  RH WIND       PRES   REMARKS
Providence     PTSUNNY   50  41  71 SE8       30.33F
Block Island   CLOUDY    49  47  93 SE10      30.33F
Westerly       CLOUDY    49  43  80 E8        30.33F
 IN MA

CITY           SKY/WX    TMP DP  RH WIND       PRES   REMARKS
Boston         PTSUNNY   48  37  65 E8        30.34F
Worcester      CLOUDY    51  28  41 SE10      30.28F
Westfield      SUNNY     56  32  40 S8        30.27F
Provincetown   PTSUNNY   50  34  54 S6        30.36F
Nantucket      CLOUDY    46  43  89 SE5       30.37F
$$

ANZ330-335-338-340-345-350-353-355-281900-
COASTAL MARINE OBSERVATIONS


STATION/POSITION TIME  SKY/WX   TEMP    WIND        PRES    VSBY  WAVE
                                AIR SEA DIR/SP/G                  HT/PER
                 (UTC)          (F)     (DEG/KT/KT) (MB)    (MI)  (FT/S)
NY HARB ENTRANCE 1650            45 44   90/  4/  4 1027.0          2/ 8
20 S FIRE ISLAND 1750            47 42  140/  8/  8 1025.1          2/ 8
GREAT SOUTH BAY  NOT AVBL
23 SSW MONTAUK P 1650            49 46              1028.0          2/ 8
15 E BARNEGAT LI 1730               44                N/A           2/ 4
HUDSON CANYON    1650            55 47  280/  2/  6 1027.8          3/ 8
KINGS POINT      1742            45 40              1025.1
EXECUTION ROCKS  NOT AVBL
CENTRAL LI SOUND NOT AVBL
EASTERN LI SOUND NOT AVBL
ROBBINS REEF     1742            53     170/ 13/ 14 1025.2
$$


>>>>>>>>>>>>>>>>>>>>>>>>>>>> KEY <<<<<<<<<<<<<<<<<<<<<<<<<<<
>                                                          <
>     SKY/WX - Sky Condition/Present Weather               <
>     TMP    - Temperature in Fahrenheit                   <
>     DP     - Dew Point in Fahrenheit                     <
>     RH     - Relative Humidity in Percent                <
>     WIND   - Direction (from) and Speed in MPH           <
>     PRES   - Mean Sea Level Pressure (inches of Hg)      <
>     WCI    - Wind Chill Index                            <
>     VSB    - VISIBILITY IN MILES                         <
>     HX     - HEAT INDEX                                  <
>     TC     - TEMPERATURE IN CELSIUS                      <
>     VRB    - VARIABLE WIND DIRECTION                     <
>                                                          <
>>>>>>>>>>>>>>>>>>>>>>>>>>>> KEY <<<<<<<<<<<<<<<<<<<<<<<<<<<




USA.gov is the U.S. government's official web portal to all federal, state and local government web resources and services.